C/2022 F1 ( ATLAS )

Japanese version
Home page
Updated on December 11, 2022

---------------------------------------------------------------------

* Profile

Discovery Date March 30, 2022
Magnitude 18.6 mag
Discoverer Asteroid Terrestrial-Impact Last Alert System (ATLAS) search program

* Orbital Elements

Epoch 2023 Feb. 25.0 TT = JDT 2460000.5
T 2022 Aug. 5.21214 TT                                  Rudenko
q   5.9746041            (2000.0)            P               Q
z  +0.0000876      Peri.  278.27540     +0.05680990     +0.98884972
 +/-0.0000054      Node   350.65561     -0.16282818     -0.12685475
e   0.9994768      Incl.   57.97255     -0.98501757     +0.07800062
>From 114 observations 2022 Mar. 30-Nov. 14, mean residual 0".5.

* Magnitudes Graph

        m1 = 6.5 + 5 log d + 10.0 log r

---------------------------------------------------------------------

The orbital elements are published on M.P.E.C. 2022-W132.
The magnitudes graphs are made with Comet for Windows.

---------------------------------------------------------------------

Copyright(C) Seiichi Yoshida (comet@aerith.net). All rights reserved.